Date String (YYYY-MM-DD hh:mm:ss) UTC,Instrument flags,Ambient pressure (hPa),Sample flow (lpm),Bypass flow (lpm),Sample temperature (°C),Ambient temperature (°C),ASC tube jacket temperature (°C),LED temperature (°C),Box temperature (°C),Sample RH (%),Span deviation,Mass concentration (μg/m³),Mass concentration (μg/m³),Mass concentration (μg/m³)
DateTimeUTC,F1_M11,P_M11,Q1_M11,Q2_M11,T1_M11,T2_M11,T3_M11,T4_M11,T5_M11,U1_M11,ZSPAN_M11,X0_M11,X2_M11,X1_M11
2023-05-13 08:00:00,,0836.1,5.01,0.00,24.0,22.4,00.0,32.5,25.5,28.3,0000.0,0006.05,0003.77,0003.46
2023-05-13 08:01:00,,0836.1,5.00,0.00,24.0,22.4,00.0,32.5,25.5,28.2,0000.0,0005.77,0003.67,0003.39
2023-05-13 08:02:00,,0836.1,5.01,0.00,24.0,22.4,00.0,32.5,25.5,28.1,0000.0,0005.34,0003.57,0003.31
2023-05-13 08:03:00,,0836.2,5.00,0.00,24.0,22.4,00.0,32.5,25.5,28.1,0000.0,0004.75,0003.46,0003.23
2023-05-13 08:04:00,,0836.2,4.99,0.00,24.0,22.4,00.0,32.5,25.6,28.1,0000.0,0004.46,0003.36,0003.15
2023-05-13 08:05:00,,0836.2,5.00,0.00,24.0,22.4,00.0,32.5,25.6,28.1,0000.0,0004.12,0003.25,0003.04
2023-05-13 08:06:00,,0836.2,4.99,0.00,24.0,22.4,00.0,32.5,25.6,28.0,0000.0,0003.95,0003.17,0002.91
2023-05-13 08:07:00,,0836.3,4.99,0.00,24.0,22.4,00.0,32.5,25.6,28.0,0000.0,0003.75,0003.08,0002.78
2023-05-13 08:08:00,,0836.2,5.01,0.00,24.0,22.4,00.0,32.5,25.5,28.1,0000.0,0003.59,0002.97,0002.65
2023-05-13 08:09:00,,0836.3,5.01,0.00,24.0,22.4,00.0,32.5,25.5,28.1,0000.0,0003.48,0002.88,0002.56
2023-05-13 08:10:00,,0836.2,5.00,0.00,24.0,22.4,00.0,32.5,25.5,28.2,0000.0,0003.41,0002.75,0002.45
2023-05-13 08:11:00,,0836.2,4.99,0.00,24.0,22.3,00.0,32.5,25.5,28.3,0000.0,0003.30,0002.65,0002.36
2023-05-13 08:12:00,,0836.3,5.00,0.00,23.9,22.3,00.0,32.4,25.5,28.3,0000.0,0003.30,0002.59,0002.30
2023-05-13 08:13:00,,0836.3,4.99,0.00,23.9,22.2,00.0,32.4,25.4,28.3,0000.0,0003.22,0002.50,0002.22
2023-05-13 08:14:00,,0836.3,4.99,0.00,23.9,22.2,00.0,32.4,25.4,28.4,0000.0,0003.14,0002.43,0002.15
2023-05-13 08:15:00,,0836.3,5.00,0.00,23.9,22.2,00.0,32.4,25.4,28.4,0000.0,0003.10,0002.40,0002.12
2023-05-13 08:16:00,,0836.2,5.01,0.00,23.9,22.1,00.0,32.4,25.4,28.5,0000.0,0003.13,0002.42,0002.10
2023-05-13 08:17:00,,0836.2,5.00,0.00,23.8,22.1,00.0,32.4,25.3,28.7,0000.0,0003.10,0002.42,0002.10
2023-05-13 08:18:00,,0836.3,5.00,0.00,23.8,22.0,00.0,32.4,25.3,28.6,0000.0,0003.14,0002.45,0002.11
2023-05-13 08:19:00,,0836.3,5.01,0.00,23.8,22.0,00.0,32.4,25.3,28.4,0000.0,0003.15,0002.46,0002.11
2023-05-13 08:20:00,,0836.2,5.01,0.00,23.8,22.0,00.0,32.3,25.3,28.4,0000.0,0003.37,0002.48,0002.11
2023-05-13 08:21:00,,0836.3,5.01,0.00,23.8,22.0,00.0,32.3,25.3,28.5,0000.0,0003.27,0002.47,0002.10
2023-05-13 08:22:00,,0836.2,5.00,0.00,23.8,22.0,00.0,32.3,25.3,28.4,0000.0,0003.18,0002.43,0002.09
2023-05-13 08:23:00,,0836.2,5.00,0.00,23.8,22.0,00.0,32.3,25.3,28.3,0000.0,0003.15,0002.43,0002.08
2023-05-13 08:24:00,,0836.2,5.00,0.00,23.7,22.0,00.0,32.3,25.3,28.3,0000.0,0003.15,0002.46,0002.09
2023-05-13 08:25:00,,0836.2,4.99,0.00,23.7,22.0,00.0,32.3,25.3,28.3,0000.0,0003.50,0002.49,0002.10
2023-05-13 08:26:00,,0836.1,5.00,0.00,23.7,21.9,00.0,32.3,25.2,28.4,0000.0,0004.61,0002.49,0002.09
2023-05-13 08:27:00,,0836.1,4.99,0.00,23.7,21.9,00.0,32.2,25.2,28.4,0000.0,0004.58,0002.46,0002.09
2023-05-13 08:28:00,,0836.1,5.00,0.00,23.7,21.9,00.0,32.2,25.2,28.3,0000.0,0004.59,0002.42,0002.08
2023-05-13 08:29:00,,0836.1,5.00,0.00,23.7,21.9,00.0,32.2,25.2,28.2,0000.0,0004.59,0002.39,0002.05
2023-05-13 08:30:00,,0836.1,5.00,0.00,23.7,21.9,00.0,32.2,25.2,28.1,0000.0,0004.59,0002.38,0002.04
2023-05-13 08:31:00,,0836.1,5.00,0.00,23.7,22.0,00.0,32.2,25.2,28.1,0000.0,0004.42,0002.35,0002.03
2023-05-13 08:32:00,,0836.1,5.00,0.00,23.7,22.0,00.0,32.2,25.2,28.1,0000.0,0004.32,0002.32,0002.01
2023-05-13 08:33:00,,0836.1,5.01,0.00,23.7,22.0,00.0,32.2,25.2,28.1,0000.0,0004.38,0002.31,0001.98
2023-05-13 08:34:00,,0836.1,5.01,0.00,23.7,22.0,00.0,32.2,25.2,28.1,0000.0,0004.48,0002.32,0001.96
2023-05-13 08:35:00,,0836.1,5.00,0.00,23.7,22.0,00.0,32.2,25.2,28.1,0000.0,0004.49,0002.32,0001.94
2023-05-13 08:36:00,,0836.1,5.01,0.00,23.7,22.0,00.0,32.2,25.2,28.1,0000.0,0004.22,0002.30,0001.91
2023-05-13 08:37:00,,0836.2,5.00,0.00,23.7,22.0,00.0,32.1,25.2,28.2,0000.0,0003.15,0002.28,0001.90
2023-05-13 08:38:00,,0836.1,5.00,0.00,23.7,22.1,00.0,32.1,25.3,28.2,0000.0,0003.21,0002.26,0001.87
2023-05-13 08:39:00,,0836.2,5.00,0.00,23.7,22.1,00.0,32.1,25.3,28.2,0000.0,0003.11,0002.22,0001.83
2023-05-13 08:40:00,,0836.2,4.99,0.00,23.7,22.1,00.0,32.1,25.3,28.2,0000.0,0003.04,0002.19,0001.79
2023-05-13 08:41:00,,0836.1,5.00,0.00,23.7,22.2,00.0,32.1,25.3,28.2,0000.0,0003.06,0002.16,0001.77
2023-05-13 08:42:00,,0836.2,5.00,0.00,23.7,22.2,00.0,32.1,25.3,28.2,0000.0,0003.19,0002.18,0001.75
2023-05-13 08:43:00,,0836.1,5.01,0.00,23.7,22.2,00.0,32.1,25.4,28.2,0000.0,0003.30,0002.19,0001.74
2023-05-13 08:44:00,,0836.2,5.01,0.00,23.8,22.3,00.0,32.1,25.4,28.1,0000.0,0003.34,0002.19,0001.75
2023-05-13 08:45:00,,0836.2,5.00,0.00,23.8,22.3,00.0,32.2,25.4,28.1,0000.0,0003.25,0002.17,0001.77
2023-05-13 08:46:00,,0836.2,4.99,0.00,23.8,22.4,00.0,32.2,25.5,28.2,0000.0,0003.96,0002.16,0001.77
2023-05-13 08:47:00,,0836.2,4.99,0.00,23.8,22.4,00.0,32.2,25.5,28.1,0000.0,0004.12,0002.16,0001.78
2023-05-13 08:48:00,,0836.2,4.99,0.00,23.8,22.4,00.0,32.2,25.5,28.1,0000.0,0003.96,0002.11,0001.77
2023-05-13 08:49:00,,0836.2,5.01,0.00,23.8,22.4,00.0,32.2,25.5,28.1,0000.0,0003.85,0002.10,0001.76
2023-05-13 08:50:00,,0836.2,5.00,0.00,23.9,22.5,00.0,32.2,25.5,28.1,0000.0,0003.95,0002.12,0001.79
2023-05-13 08:51:00,,0836.3,5.01,0.00,23.9,22.5,00.0,32.2,25.6,28.0,0000.0,0004.01,0002.12,0001.79
2023-05-13 08:52:00,,0836.2,5.01,0.00,23.9,22.6,00.0,32.2,25.6,28.0,0000.0,0004.02,0002.10,0001.81
2023-05-13 08:53:00,,0836.2,5.00,0.00,23.9,22.6,00.0,32.2,25.6,27.9,0000.0,0003.99,0002.07,0001.81
2023-05-13 08:54:00,,0836.1,5.00,0.00,24.0,22.7,00.0,32.2,25.6,27.8,0000.0,0004.01,0002.10,0001.81
2023-05-13 08:55:00,,0836.1,5.00,0.00,24.0,22.7,00.0,32.3,25.7,27.8,0000.0,0004.51,0002.09,0001.79
2023-05-13 08:56:00,,0836.1,4.99,0.00,24.0,22.7,00.0,32.3,25.7,27.7,0000.0,0004.57,0002.08,0001.79
2023-05-13 08:57:00,,0836.1,5.00,0.00,24.0,22.8,00.0,32.3,25.7,27.7,0000.0,0004.12,0002.13,0001.79
2023-05-13 08:58:00,,0836.1,5.00,0.00,24.1,22.8,00.0,32.3,25.7,27.7,0000.0,0003.84,0002.14,0001.79
2023-05-13 08:59:00,,0836.1,5.00,0.00,24.1,22.8,00.0,32.3,25.7,27.8,0000.0,0004.03,0002.20,0001.80
